Location: Weatherford
(35.5260°N, 98.7070°W)
Time: 05:39:10
(UTC-05:00)

OPAL - Visible Passes

Search period start: 01 April 2015 00:00
Search period end: 11 April 2015 00:00
Orbit: 743 x 796 km, 100.2° (Epoch: 31 March)

Date Brightness Start Highest point End Pass type
(mag) Time Alt. Az. Time Alt. Az. Time Alt. Az.
01 Apr 8.8 21:39:30 10° N 21:44:13 41° WNW 21:48:57 10° SW visible
02 Apr 7.4 21:03:56 10° NNE 21:08:59 86° ESE 21:14:06 10° SSW visible
02 Apr 10.8 22:46:24 10° NW 22:47:18 10° WNW 22:47:52 10° WNW visible
03 Apr 10.8 06:41:13 10° E 06:42:41 11° ENE 06:44:26 10° NE visible
03 Apr 8.0 20:28:57 10° NNE 20:33:35 36° E 20:38:18 10° SSE visible
03 Apr 9.8 22:08:19 10° NNW 22:12:19 23° WNW 22:16:12 10° WSW visible
04 Apr 8.4 21:32:16 10° N 21:37:10 51° WNW 21:42:06 10° SW visible
05 Apr 7.4 20:56:51 10° NNE 21:01:54 69° ESE 21:07:00 10° S visible
05 Apr 10.6 22:37:54 10° NW 22:40:18 13° WNW 22:42:27 10° W visible
06 Apr 8.3 20:22:04 10° NE 20:26:26 29° E 20:30:55 10° SSE visible
06 Apr 9.5 22:00:56 10° N 22:05:16 29° WNW 22:09:34 10° SW visible
07 Apr 7.9 21:25:04 10° N 21:30:06 65° WNW 21:35:10 10° SSW visible
08 Apr 7.6 20:49:48 10° NNE 20:54:47 55° ESE 20:59:49 10° S visible
08 Apr 10.3 22:30:07 10° NNW 22:33:18 16° WNW 22:36:17 10° W visible
09 Apr 9.1 21:53:37 10° N 21:58:14 35° WNW 22:02:50 10° SW visible
10 Apr 7.6 21:17:55 10° NNE 21:23:01 80° WNW 21:28:10 10° SSW visible
